| time (UTC) | temp F | wind direction | speed MPH | gust MPH | rain 1hr in | rain 24hr in | rain mn in | humidity % | barometer mb |
| 20260507001254 | 78 | 317 | 6.0 | 9.0 | 0.00 | 0.00 | 0.00 | 45 | |
| 20260507000735 | 77 | 276 | 2.0 | 11.0 | 0.00 | 0.00 | 0.00 | 46 | |
| 20260507000234 | 78 | 320 | 6.0 | 11.0 | 0.00 | 0.00 | 0.00 | 45 | |
| 20260506235730 | 78 | 306 | 3.0 | 10.0 | 0.00 | 0.00 | 0.00 | 44 | |
| 20260506235233 | 78 | 287 | 2.0 | 13.0 | 0.00 | 0.00 | 0.00 | 45 | |
| 20260506234754 | 78 | 354 | 7.0 | 13.0 | 0.00 | 0.00 | 0.00 | 44 | |
| 20260506234257 | 79 | 281 | 4.0 | 8.0 | 0.00 | 0.00 | 0.00 | 44 | |
| 20260506233738 | 78 | 244 | 3.0 | 12.0 | 0.00 | 0.00 | 0.00 | 44 | |
| 20260506233312 | 79 | 314 | 7.0 | 12.0 | 0.00 | 0.00 | 0.00 | 43 | |
| 20260506232730 | 80 | 248 | 6.0 | 9.0 | 0.00 | 0.00 | 0.00 | 42 | |
| 20260506232235 | 80 | 318 | 3.0 | 8.0 | 0.00 | 0.00 | 0.00 | 42 | |
| 20260506231738 | 79 | 303 | 2.0 | 11.0 | 0.00 | 0.00 | 0.00 | 43 | |
| 20260506231249 | 80 | 243 | 5.0 | 11.0 | 0.00 | 0.00 | 0.00 | 43 | |
| 20260506230730 | 81 | 288 | 3.0 | 9.0 | 0.00 | 0.00 | 0.00 | 42 | |
| 20260506230249 | 81 | 325 | 2.0 | 10.0 | 0.00 | 0.00 | 0.00 | 42 | |
| 20260506225749 | 81 | 264 | 6.0 | 10.0 | 0.00 | 0.00 | 0.00 | 42 | |
| 20260506225252 | 81 | 272 | 4.0 | 10.0 | 0.00 | 0.00 | 0.00 | 42 | |
| 20260506224815 | 80 | 312 | 6.0 | 10.0 | 0.00 | 0.00 | 0.00 | 42 | |
| 20260506223756 | 79 | 293 | 6.0 | 13.0 | 0.00 | 0.00 | 0.00 | 43 | |
| 20260506223235 | 80 | 310 | 6.0 | 14.0 | 0.00 | 0.00 | 0.00 | 43 | |
| 20260506222756 | 80 | 326 | 6.0 | 14.0 | 0.00 | 0.00 | 0.00 | 42 | |
| 20260506222233 | 81 | 337 | 4.0 | 10.0 | 0.00 | 0.00 | 0.00 | 42 | |
| 20260506221733 | 83 | 310 | 6.0 | 10.0 | 0.00 | 0.00 | 0.00 | 40 | |
| 20260506221236 | 82 | 249 | 3.0 | 9.0 | 0.00 | 0.00 | 0.00 | 41 | |
| 20260506220737 | 82 | 289 | 2.0 | 11.0 | 0.00 | 0.00 | 0.00 | 40 | |
| 20260506220255 | 82 | 295 | 5.0 | 11.0 | 0.00 | 0.00 | 0.00 | 40 | |
| 20260506215754 | 82 | 291 | 4.0 | 8.0 | 0.00 | 0.00 | 0.00 | 40 | |
| 20260506215230 | 81 | 256 | 4.0 | 10.0 | 0.00 | 0.00 | 0.00 | 41 | |
| 20260506214750 | 81 | 326 | 5.0 | 10.0 | 0.00 | 0.00 | 0.00 | 40 | |
| 20260506214231 | 81 | 338 | 4.0 | 8.0 | 0.00 | 0.00 | 0.00 | 40 | |
| 20260506213733 | 81 | 354 | 4.0 | 8.0 | 0.00 | 0.00 | 0.00 | 40 | |
| 20260506213253 | 80 | 308 | 2.0 | 8.0 | 0.00 | 0.00 | 0.00 | 41 | |
| 20260506212752 | 79 | 265 | 3.0 | 8.0 | 0.00 | 0.00 | 0.00 | 41 | |
| 20260506212253 | 79 | 104 | 3.0 | 5.0 | 0.00 | 0.00 | 0.00 | 40 | |
| 20260506211754 | 78 | 145 | 2.0 | 3.0 | 0.00 | 0.00 | 0.00 | 40 | |
| 20260506211253 | 78 | 158 | 1.0 | 7.0 | 0.00 | 0.00 | 0.00 | 40 | |
| 20260506210735 | 78 | 139 | 4.0 | 9.0 | 0.00 | 0.00 | 0.00 | 39 | |
| 20260506210233 | 79 | 91 | 4.0 | 8.0 | 0.00 | 0.00 | 0.00 | 39 | |
| 20260506205734 | 79 | 231 | 4.0 | 7.0 | 0.00 | 0.00 | 0.00 | 39 | |
| 20260506205237 | 79 | 283 | 4.0 | 7.0 | 0.00 | 0.00 | 0.00 | 40 | |
| 20260506204737 | 78 | 184 | 3.0 | 6.0 | 0.00 | 0.00 | 0.00 | 40 | |
| 20260506204259 | 78 | 122 | 2.0 | 6.0 | 0.00 | 0.00 | 0.00 | 40 | |
| 20260506203757 | 78 | 125 | 2.0 | 6.0 | 0.00 | 0.00 | 0.00 | 40 | |
| 20260506203233 | 77 | 23 | 3.0 | 7.0 | 0.00 | 0.00 | 0.00 | 40 | |
| 20260506202754 | 77 | 130 | 2.0 | 9.0 | 0.00 | 0.00 | 0.00 | 42 | |
| 20260506202233 | 76 | 166 | 5.0 | 9.0 | 0.00 | 0.00 | 0.00 | 43 | |
| 20260506201733 | 76 | 97 | 4.0 | 8.0 | 0.00 | 0.00 | 0.00 | 42 | |
| 20260506201233 | 75 | 98 | 4.0 | 8.0 | 0.00 | 0.00 | 0.00 | 42 | |
| 20260506200807 | 75 | 85 | 3.0 | 7.0 | 0.00 | 0.00 | 0.00 | 42 | |
| 20260506200252 | 75 | 245 | 2.0 | 10.0 | 0.00 | 0.00 | 0.00 | 43 | |
| 20260506195731 | 74 | 155 | 3.0 | 10.0 | 0.00 | 0.00 | 0.00 | 43 | |
| 20260506195234 | 74 | 106 | 5.0 | 9.0 | 0.00 | 0.00 | 0.00 | 43 | |
| 20260506194736 | 74 | 88 | 5.0 | 9.0 | 0.00 | 0.00 | 0.00 | 44 | |
| 20260506194240 | 74 | 108 | 6.0 | 10.0 | 0.00 | 0.00 | 0.00 | 43 | |
| 20260506193738 | 74 | 91 | 2.0 | 8.0 | 0.00 | 0.00 | 0.00 | 43 | |
| 20260506193255 | 74 | 75 | 3.0 | 8.0 | 0.00 | 0.00 | 0.00 | 44 | |
| 20260506192756 | 74 | 136 | 3.0 | 8.0 | 0.00 | 0.00 | 0.00 | 43 | |
| 20260506192237 | 75 | 91 | 3.0 | 7.0 | 0.00 | 0.00 | 0.00 | 42 | |
| 20260506191736 | 75 | 271 | 3.0 | 7.0 | 0.00 | 0.00 | 0.00 | 45 | |
| 20260506191241 | 73 | 323 | 1.0 | 5.0 | 0.00 | 0.00 | 0.00 | 45 | |
| 20260506190757 | 73 | 4 | 3.0 | 5.0 | 0.00 | 0.00 | 0.00 | 44 | |
| 20260506190239 | 74 | 60 | 3.0 | 6.0 | 0.00 | 0.00 | 0.00 | 44 | |
| 20260506185736 | 73 | 288 | 2.0 | 8.0 | 0.00 | 0.00 | 0.00 | 45 | |
| 20260506185243 | 72 | 162 | 4.0 | 8.0 | 0.00 | 0.00 | 0.00 | 47 | |
| 20260506184742 | 72 | 119 | 4.0 | 8.0 | 0.00 | 0.00 | 0.00 | 47 | |
| 20260506184241 | 71 | 292 | 2.0 | 6.0 | 0.00 | 0.00 | 0.00 | 47 | |
| 20260506183738 | 71 | 60 | 1.0 | 6.0 | 0.00 | 0.00 | 0.00 | 47 | |
| 20260506183238 | 71 | 142 | 2.0 | 5.0 | 0.00 | 0.00 | 0.00 | 49 | |
| 20260506182759 | 70 | 51 | 2.0 | 10.0 | 0.00 | 0.00 | 0.00 | 49 | |
| 20260506182247 | 70 | 93 | 5.0 | 10.0 | 0.00 | 0.00 | 0.00 | 48 | |
| 20260506181808 | 70 | 111 | 5.0 | 9.0 | 0.00 | 0.00 | 0.00 | 48 | |
| 20260506181230 | 70 | 142 | 1.0 | 5.0 | 0.00 | 0.00 | 0.00 | 49 | |
| 20260506180732 | 69 | 148 | 3.0 | 5.0 | 0.00 | 0.00 | 0.00 | 50 | |
| 20260506180239 | 69 | 149 | 2.0 | 6.0 | 0.00 | 0.00 | 0.00 | 49 | |
| 20260506175740 | 69 | 240 | 3.0 | 6.0 | 0.00 | 0.00 | 0.00 | 49 | |
| 20260506175246 | 68 | 87 | 2.0 | 5.0 | 0.00 | 0.00 | 0.00 | 50 | |
| 20260506174748 | 68 | 135 | 2.0 | 6.0 | 0.00 | 0.00 | 0.00 | 50 | |
| 20260506174255 | 68 | 189 | 3.0 | 6.0 | 0.00 | 0.00 | 0.00 | 51 | |
| 20260506173752 | 67 | 323 | 2.0 | 6.0 | 0.00 | 0.00 | 0.00 | 51 | |
| 20260506173309 | 67 | 179 | 2.0 | 5.0 | 0.00 | 0.00 | 0.00 | 52 | |
| 20260506172731 | 67 | 217 | 2.0 | 5.0 | 0.00 | 0.00 | 0.00 | 51 | |
| 20260506172300 | 67 | 121 | 2.0 | 6.0 | 0.00 | 0.00 | 0.00 | 52 | |
| 20260506171740 | 67 | 208 | 4.0 | 6.0 | 0.00 | 0.00 | 0.00 | 52 | |
| 20260506171245 | 67 | 181 | 1.0 | 3.0 | 0.00 | 0.00 | 0.00 | 53 | |
| 20260506170740 | 66 | 104 | 2.0 | 3.0 | 0.00 | 0.00 | 0.00 | 54 | |
| 20260506170312 | 65 | 44 | 1.0 | 6.0 | 0.00 | 0.00 | 0.00 | 55 | |
| 20260506165752 | 65 | 268 | 2.0 | 6.0 | 0.00 | 0.00 | 0.00 | 55 | |
| 20260506165230 | 65 | 220 | 2.0 | 4.0 | 0.00 | 0.00 | 0.00 | 55 | |
| 20260506164731 | 65 | 252 | 3.0 | 4.0 | 0.00 | 0.00 | 0.00 | 57 | |
| 20260506164255 | 64 | 239 | 2.0 | 5.0 | 0.00 | 0.00 | 0.00 | 57 | |
| 20260506163735 | 64 | 151 | 1.0 | 4.0 | 0.00 | 0.00 | 0.00 | 59 | |
| 20260506163249 | 64 | 216 | 1.0 | 5.0 | 0.00 | 0.00 | 0.00 | 60 | |
| 20260506162750 | 64 | 220 | 3.0 | 5.0 | 0.00 | 0.00 | 0.00 | 60 | |
| 20260506162232 | 63 | 73 | 2.0 | 6.0 | 0.00 | 0.00 | 0.00 | 61 | |
| 20260506161731 | 63 | 81 | 3.0 | 6.0 | 0.00 | 0.00 | 0.00 | 62 | |
| 20260506161254 | 63 | 81 | 2.0 | 6.0 | 0.00 | 0.00 | 0.00 | 62 | |
| 20260506160755 | 63 | 265 | 2.0 | 6.0 | 0.00 | 0.00 | 0.00 | 63 | |
| 20260506160250 | 62 | 124 | 2.0 | 4.0 | 0.00 | 0.00 | 0.00 | 63 | |
| 20260506155731 | 62 | 143 | 2.0 | 6.0 | 0.00 | 0.00 | 0.00 | 63 | |
| 20260506155233 | 61 | 39 | 2.0 | 6.0 | 0.00 | 0.00 | 0.00 | 65 | |
| 20260506154754 | 61 | 131 | 2.0 | 4.0 | 0.00 | 0.00 | 0.00 | 65 | |
| 20260506154255 | 61 | 246 | 2.0 | 4.0 | 0.00 | 0.00 | 0.00 | 65 | |
| 20260506153755 | 61 | 172 | 1.0 | 4.0 | 0.00 | 0.00 | 0.00 | 65 | |
| 20260506153252 | 61 | 221 | 1.0 | 3.0 | 0.00 | 0.00 | 0.00 | 66 | |
| 20260506152750 | 60 | 150 | 1.0 | 4.0 | 0.00 | 0.00 | 0.00 | 66 | |
| 20260506152235 | 60 | 52 | 1.0 | 3.0 | 0.00 | 0.00 | 0.00 | 67 | |
| 20260506151735 | 59 | 79 | 2.0 | 4.0 | 0.00 | 0.00 | 0.00 | 67 | |
| 20260506151238 | 59 | 70 | 3.0 | 4.0 | 0.00 | 0.00 | 0.00 | 67 | |
| 20260506150738 | 59 | 116 | 1.0 | 5.0 | 0.00 | 0.00 | 0.00 | 68 | |
| 20260506150240 | 58 | 98 | 1.0 | 3.0 | 0.00 | 0.00 | 0.00 | 69 | |
| 20260506145740 | 59 | 124 | 2.0 | 3.0 | 0.00 | 0.00 | 0.00 | 68 | |
| 20260506145318 | 59 | 104 | 1.0 | 2.0 | 0.00 | 0.00 | 0.00 | 70 | |
| 20260506144731 | 58 | 97 | 0.0 | 0.0 | 0.00 | 0.00 | 0.00 | 71 | |
| 20260506144235 | 58 | 97 | 0.0 | 0.0 | 0.00 | 0.00 | 0.00 | 73 | |
| 20260506143814 | 57 | 108 | 0.0 | 0.0 | 0.00 | 0.00 | 0.00 | 73 | |
| 20260506143230 | 57 | 87 | 0.0 | 0.0 | 0.00 | 0.00 | 0.00 | 75 | |
| 20260506142729 | 57 | 89 | 0.0 | 0.0 | 0.00 | 0.00 | 0.00 | 76 | |
| 20260506142229 | 56 | 102 | 0.0 | 0.0 | 0.00 | 0.00 | 0.00 | 78 | |
| 20260506141730 | 55 | 196 | 0.0 | 0.0 | 0.00 | 0.00 | 0.00 | 80 | |
| 20260506141232 | 54 | 197 | 0.0 | 0.0 | 0.00 | 0.00 | 0.00 | 81 | |
| 20260506140753 | 53 | 314 | 0.0 | 0.0 | 0.00 | 0.00 | 0.00 | 81 | |
| 20260506140316 | 52 | 314 | 0.0 | 0.0 | 0.00 | 0.00 | 0.00 | 82 | |
| 20260506135817 | 52 | 331 | 0.0 | 0.0 | 0.00 | 0.00 | 0.00 | 82 | |
| 20260506135258 | 51 | 327 | 0.0 | 1.0 | 0.00 | 0.00 | 0.00 | 82 | |
| 20260506134737 | 51 | 327 | 0.0 | 1.0 | 0.00 | 0.00 | 0.00 | 83 | |
| 20260506134230 | 50 | 327 | 0.0 | 1.0 | 0.00 | 0.00 | 0.00 | 83 | |
| 20260506133731 | 50 | 327 | 0.0 | 0.0 | 0.00 | 0.00 | 0.00 | 86 | |
| 20260506133250 | 50 | 327 | 0.0 | 0.0 | 0.00 | 0.00 | 0.00 | 83 | |
| 20260506132732 | 49 | 327 | 0.0 | 1.0 | 0.00 | 0.00 | 0.00 | 83 | |
| 20260506132308 | 49 | 327 | 0.0 | 3.0 | 0.00 | 0.00 | 0.00 | 82 | |
| 20260506131748 | 49 | 331 | 1.0 | 3.0 | 0.00 | 0.00 | 0.00 | 82 | |
| 20260506131248 | 49 | 336 | 1.0 | 2.0 | 0.00 | 0.00 | 0.00 | 82 | |
| 20260506130747 | 49 | 315 | 0.0 | 0.0 | 0.00 | 0.00 | 0.00 | 82 | |
| 20260506130314 | 49 | 315 | 0.0 | 0.0 | 0.00 | 0.00 | 0.00 | 82 | |
| 20260506125752 | 49 | 315 | 0.0 | 0.0 | 0.00 | 0.00 | 0.00 | 82 | |
| 20260506125236 | 49 | 315 | 0.0 | 0.0 | 0.00 | 0.00 | 0.00 | 82 | |
| 20260506124736 | 49 | 315 | 0.0 | 0.0 | 0.00 | 0.00 | 0.00 | 82 | |
| 20260506124237 | 49 | 315 | 0.0 | 0.0 | 0.00 | 0.00 | 0.00 | 82 | |
| 20260506123736 | 49 | 315 | 0.0 | 0.0 | 0.00 | 0.00 | 0.00 | 81 | |
| 20260506123251 | 49 | 315 | 0.0 | 0.0 | 0.00 | 0.00 | 0.00 | 81 | |
| 20260506122751 | 49 | 315 | 0.0 | 0.0 | 0.00 | 0.00 | 0.00 | 81 | |
| 20260506122233 | 49 | 315 | 0.0 | 0.0 | 0.00 | 0.00 | 0.00 | 81 | |
| 20260506121732 | 50 | 315 | 0.0 | 0.0 | 0.00 | 0.00 | 0.00 | 81 | |
| 20260506121232 | 50 | 315 | 0.0 | 0.0 | 0.00 | 0.00 | 0.00 | 81 | |
| 20260506120732 | 50 | 315 | 0.0 | 0.0 | 0.00 | 0.00 | 0.00 | 81 | |
| 20260506120251 | 50 | 315 | 0.0 | 0.0 | 0.00 | 0.00 | 0.00 | 81 | |
| 20260506115732 | 50 | 315 | 0.0 | 0.0 | 0.00 | 0.00 | 0.00 | 80 | |
| 20260506115245 | 50 | 315 | 0.0 | 0.0 | 0.00 | 0.00 | 0.00 | 80 | |
| 20260506114748 | 50 | 315 | 0.0 | 0.0 | 0.00 | 0.00 | 0.00 | 80 | |
| 20260506114233 | 50 | 315 | 0.0 | 0.0 | 0.00 | 0.00 | 0.00 | 80 | |
| 20260506113734 | 50 | 315 | 0.0 | 0.0 | 0.00 | 0.00 | 0.00 | 80 | |
| 20260506113258 | 50 | 315 | 0.0 | 0.0 | 0.00 | 0.00 | 0.00 | 80 | |
| 20260506112737 | 51 | 315 | 0.0 | 0.0 | 0.00 | 0.00 | 0.00 | 80 | |
| 20260506112259 | 51 | 315 | 0.0 | 0.0 | 0.00 | 0.00 | 0.00 | 79 | |
| 20260506111739 | 51 | 315 | 0.0 | 0.0 | 0.00 | 0.00 | 0.00 | 79 | |
| 20260506111229 | 51 | 315 | 0.0 | 0.0 | 0.00 | 0.00 | 0.00 | 79 | |
| 20260506110732 | 51 | 315 | 0.0 | 0.0 | 0.00 | 0.00 | 0.00 | 79 | |
| 20260506110232 | 51 | 315 | 0.0 | 0.0 | 0.00 | 0.00 | 0.00 | 79 | |
| 20260506105735 | 51 | 315 | 0.0 | 2.0 | 0.00 | 0.00 | 0.00 | 79 | |
| 20260506105258 | 52 | 315 | 0.0 | 3.0 | 0.00 | 0.00 | 0.00 | 79 | |
| 20260506104738 | 52 | 328 | 1.0 | 3.0 | 0.00 | 0.00 | 0.00 | 79 | |
| 20260506104229 | 52 | 334 | 2.0 | 3.0 | 0.00 | 0.00 | 0.00 | 79 | |
| 20260506103752 | 52 | 332 | 0.0 | 3.0 | 0.00 | 0.00 | 0.00 | 79 | |
| 20260506103249 | 52 | 330 | 1.0 | 3.0 | 0.00 | 0.00 | 0.00 | 79 | |
| 20260506102751 | 52 | 324 | 1.0 | 2.0 | 0.00 | 0.00 | 0.00 | 79 | |
| 20260506102235 | 52 | 329 | 0.0 | 4.0 | 0.00 | 0.00 | 0.00 | 79 | |
| 20260506101735 | 52 | 322 | 2.0 | 4.0 | 0.00 | 0.00 | 0.00 | 79 | |
| 20260506101237 | 52 | 325 | 1.0 | 4.0 | 0.00 | 0.00 | 0.00 | 79 | |
| 20260506100757 | 52 | 338 | 2.0 | 5.0 | 0.00 | 0.00 | 0.00 | 79 | |
| 20260506100233 | 52 | 327 | 3.0 | 5.0 | 0.00 | 0.00 | 0.00 | 79 | |
| 20260506095755 | 52 | 341 | 3.0 | 5.0 | 0.00 | 0.00 | 0.00 | 79 | |
| 20260506095231 | 52 | 326 | 2.0 | 3.0 | 0.00 | 0.00 | 0.00 | 79 | |
| 20260506094732 | 52 | 326 | 2.0 | 3.0 | 0.00 | 0.00 | 0.00 | 79 | |
| 20260506094234 | 52 | 332 | 2.0 | 3.0 | 0.00 | 0.00 | 0.00 | 79 | |
| 20260506093734 | 52 | 333 | 1.0 | 3.0 | 0.00 | 0.00 | 0.00 | 79 | |
| 20260506093235 | 52 | 326 | 1.0 | 3.0 | 0.00 | 0.00 | 0.00 | 79 | |
| 20260506092735 | 52 | 329 | 2.0 | 3.0 | 0.00 | 0.00 | 0.00 | 79 | |
| 20260506092243 | 52 | 322 | 1.0 | 4.0 | 0.00 | 0.00 | 0.00 | 79 | |
| 20260506091752 | 52 | 334 | 3.0 | 4.0 | 0.00 | 0.00 | 0.00 | 79 | |
| 20260506091236 | 51 | 325 | 0.0 | 0.0 | 0.00 | 0.00 | 0.00 | 79 | |
| 20260506090737 | 51 | 314 | 0.0 | 0.0 | 0.00 | 0.00 | 0.00 | 78 | |
| 20260506090240 | 51 | 314 | 0.0 | 0.0 | 0.00 | 0.00 | 0.00 | 78 | |
| 20260506085756 | 52 | 314 | 0.0 | 0.0 | 0.00 | 0.00 | 0.00 | 78 | |
| 20260506085234 | 52 | 314 | 0.0 | 0.0 | 0.00 | 0.00 | 0.00 | 78 | |
| 20260506084754 | 52 | 314 | 0.0 | 0.0 | 0.00 | 0.00 | 0.00 | 78 | |
| 20260506084235 | 52 | 314 | 0.0 | 0.0 | 0.00 | 0.00 | 0.00 | 77 | |
| 20260506083753 | 52 | 314 | 0.0 | 0.0 | 0.00 | 0.00 | 0.00 | 77 | |
| 20260506083314 | 52 | 314 | 0.0 | 0.0 | 0.00 | 0.00 | 0.00 | 77 | |
| 20260506082812 | 52 | 314 | 0.0 | 1.0 | 0.00 | 0.00 | 0.00 | 77 | |
| 20260506082232 | 52 | 312 | 0.0 | 2.0 | 0.00 | 0.00 | 0.00 | 77 | |
| 20260506081733 | 52 | 318 | 1.0 | 3.0 | 0.00 | 0.00 | 0.00 | 77 | |
| 20260506081236 | 52 | 330 | 0.0 | 0.0 | 0.00 | 0.00 | 0.00 | 76 | |
| 20260506080736 | 52 | 321 | 0.0 | 0.0 | 0.00 | 0.00 | 0.00 | 76 | |
| 20260506080254 | 53 | 321 | 0.0 | 0.0 | 0.00 | 0.00 | 0.00 | 76 | |
| 20260506073250 | 53 | 332 | 0.0 | 0.0 | 0.00 | 0.00 | 0.00 | 75 | |
| 20260506072808 | 53 | 332 | 0.0 | 2.0 | 0.00 | 0.00 | 0.00 | 75 | |
| 20260506072230 | 53 | 332 | 0.0 | 2.0 | 0.00 | 0.00 | 0.00 | 75 | |
| 20260506071731 | 53 | 334 | 0.0 | 1.0 | 0.00 | 0.00 | 0.00 | 75 | |
| 20260506071234 | 53 | 334 | 0.0 | 2.0 | 0.00 | 0.00 | 0.00 | 74 | |
| 20260506070733 | 53 | 334 | 0.0 | 2.0 | 0.00 | 0.00 | 0.00 | 74 | |
| 20260506070251 | 54 | 333 | 1.0 | 3.0 | 0.00 | 0.00 | 0.00 | 74 | |
| 20260506062307 | 54 | 323 | 0.0 | 2.0 | 0.00 | 0.00 | 0.00 | 72 | |
| 20260506061750 | 54 | 323 | 1.0 | 2.0 | 0.00 | 0.00 | 0.00 | 71 | |
| 20260506061233 | 54 | 323 | 0.0 | 2.0 | 0.00 | 0.00 | 0.00 | 71 | |
| 20260506060734 | 54 | 323 | 1.0 | 2.0 | 0.00 | 0.00 | 0.00 | 71 | |
| 20260506060230 | 55 | 331 | 0.0 | 3.0 | 0.00 | 0.00 | 0.00 | 71 | |
| 20260506051240 | 55 | 316 | 0.0 | 0.0 | 0.00 | 0.00 | 0.00 | 69 | |
| 20260506050739 | 56 | 316 | 0.0 | 0.0 | 0.00 | 0.00 | 0.00 | 69 | |
| 20260506050239 | 56 | 337 | 0.0 | 0.0 | 0.00 | 0.00 | 0.00 | 69 | |
| 20260506044728 | 57 | 332 | 0.0 | 1.0 | 0.00 | 0.00 | 0.00 | 70 | |
| 20260506044231 | 57 | 343 | 0.0 | 1.0 | 0.00 | 0.00 | 0.00 | 70 | |
| 20260506043735 | 57 | 347 | 0.0 | 3.0 | 0.00 | 0.00 | 0.00 | 70 | |
| 20260506043309 | 58 | 337 | 2.0 | 3.0 | 0.00 | 0.00 | 0.00 | 70 | |
| 20260506042731 | 58 | 310 | 1.0 | 2.0 | 0.00 | 0.00 | 0.00 | 70 | |
| 20260506042250 | 58 | 305 | 0.0 | 0.0 | 0.00 | 0.00 | 0.00 | 69 | |
| 20260506041732 | 58 | 263 | 0.0 | 0.0 | 0.00 | 0.00 | 0.00 | 69 | |
| 20260506041235 | 58 | 257 | 0.0 | 0.0 | 0.00 | 0.00 | 0.00 | 68 | |
| 20260506040755 | 58 | 256 | 0.0 | 0.0 | 0.00 | 0.00 | 0.00 | 68 | |
| 20260506040232 | 59 | 257 | 0.0 | 0.0 | 0.00 | 0.00 | 0.00 | 68 | |
| 20260506035733 | 59 | 256 | 0.0 | 0.0 | 0.00 | 0.00 | 0.00 | 67 | |
| 20260506035231 | 59 | 274 | 0.0 | 0.0 | 0.00 | 0.00 | 0.00 | 67 | |
| 20260506034732 | 59 | 274 | 0.0 | 0.0 | 0.00 | 0.00 | 0.00 | 67 | |
| 20260506034256 | 59 | 274 | 0.0 | 0.0 | 0.00 | 0.00 | 0.00 | 66 | |
| 20260506033757 | 59 | 274 | 0.0 | 0.0 | 0.00 | 0.00 | 0.00 | 66 | |
| 20260506033237 | 59 | 274 | 0.0 | 0.0 | 0.00 | 0.00 | 0.00 | 66 | |
| 20260506032755 | 60 | 274 | 0.0 | 0.0 | 0.00 | 0.00 | 0.00 | 65 | |
| 20260506032245 | 60 | 274 | 0.0 | 0.0 | 0.00 | 0.00 | 0.00 | 65 | |
| 20260506031748 | 60 | 280 | 0.0 | 0.0 | 0.00 | 0.00 | 0.00 | 65 | |
| 20260506031228 | 60 | 280 | 0.0 | 0.0 | 0.00 | 0.00 | 0.00 | 64 | |
| 20260506030731 | 60 | 277 | 0.0 | 0.0 | 0.00 | 0.00 | 0.00 | 64 | |
| 20260506030253 | 61 | 303 | 0.0 | 0.0 | 0.00 | 0.00 | 0.00 | 64 | |
| 20260506025735 | 61 | 303 | 0.0 | 5.0 | 0.00 | 0.00 | 0.00 | 64 | |
| 20260506025241 | 61 | 333 | 2.0 | 5.0 | 0.00 | 0.00 | 0.00 | 63 | |
| 20260506024751 | 61 | 326 | 1.0 | 8.0 | 0.00 | 0.00 | 0.00 | 63 | |
| 20260506024242 | 61 | 310 | 4.0 | 8.0 | 0.00 | 0.00 | 0.00 | 63 | |
| 20260506023745 | 61 | 323 | 1.0 | 4.0 | 0.00 | 0.00 | 0.00 | 63 | |
| 20260506023247 | 62 | 322 | 3.0 | 5.0 | 0.00 | 0.00 | 0.00 | 62 | |
| 20260506022732 | 62 | 289 | 3.0 | 5.0 | 0.00 | 0.00 | 0.00 | 63 | |
| 20260506022230 | 62 | 304 | 3.0 | 6.0 | 0.00 | 0.00 | 0.00 | 63 | |
| 20260506021730 | 62 | 289 | 2.0 | 8.0 | 0.00 | 0.00 | 0.00 | 63 | |
| 20260506021231 | 63 | 310 | 4.0 | 9.0 | 0.00 | 0.00 | 0.00 | 62 | |
| 20260506020752 | 63 | 268 | 5.0 | 9.0 | 0.00 | 0.00 | 0.00 | 62 | |
| 20260506020231 | 63 | 249 | 5.0 | 9.0 | 0.00 | 0.00 | 0.00 | 61 | |
| 20260506015754 | 63 | 337 | 2.0 | 8.0 | 0.00 | 0.00 | 0.00 | 60 | |
| 20260506015233 | 63 | 249 | 4.0 | 9.0 | 0.00 | 0.00 | 0.00 | 59 | |
| 20260506014735 | 64 | 273 | 2.0 | 11.0 | 0.00 | 0.00 | 0.00 | 58 | |
| 20260506014251 | 64 | 278 | 5.0 | 11.0 | 0.00 | 0.00 | 0.00 | 57 | |
| 20260506013749 | 65 | 316 | 4.0 | 10.0 | 0.00 | 0.00 | 0.00 | 57 | |
| 20260506013229 | 65 | 272 | 5.0 | 10.0 | 0.00 | 0.00 | 0.00 | 56 | |
| 20260506012732 | 65 | 297 | 4.0 | 10.0 | 0.00 | 0.00 | 0.00 | 56 | |
| 20260506012253 | 65 | 314 | 4.0 | 10.0 | 0.00 | 0.00 | 0.00 | 56 | |
| 20260506011734 | 65 | 328 | 3.0 | 11.0 | 0.00 | 0.00 | 0.00 | 55 | |
| 20260506011242 | 65 | 307 | 4.0 | 11.0 | 0.00 | 0.00 | 0.00 | 55 | |
| 20260506010745 | 65 | 206 | 4.0 | 6.0 | 0.00 | 0.00 | 0.00 | 54 | |
| 20260506010231 | 66 | 54 | 2.0 | 7.0 | 0.00 | 0.00 | 0.00 | 54 | |
| 20260506005733 | 66 | 54 | 3.0 | 7.0 | 0.00 | 0.00 | 0.00 | 53 | |
| 20260506005238 | 65 | 253 | 2.0 | 4.0 | 0.00 | 0.00 | 0.00 | 52 | |
| 20260506004738 | 65 | 248 | 2.0 | 3.0 | 0.00 | 0.00 | 0.00 | 53 | |
| 20260506004311 | 65 | 194 | 0.0 | 4.0 | 0.00 | 0.00 | 0.00 | 53 | |
| 20260506003811 | 64 | 185 | 2.0 | 4.0 | 0.00 | 0.00 | 0.00 | 51 | |
| 20260506003233 | 64 | 105 | 2.0 | 4.0 | 0.00 | 0.00 | 0.00 | 52 | |
| 20260506002734 | 64 | 95 | 1.0 | 4.0 | 0.00 | 0.00 | 0.00 | 52 | |
| 20260506002238 | 65 | 79 | 2.0 | 5.0 | 0.00 | 0.00 | 0.00 | 53 | |
| 20260506001733 | 64 | 93 | 1.0 | 5.0 | 0.00 | 0.00 | 0.00 | 53 |